Terminal Aerodrome Forecast
Issued by NWS Green Bay, WI

Home | Current Version | Previous Version | Graphics & Text | Print | Product List | Glossary On
Versions: 1 2 3 4 5 6 7 8 9 10 11 12 13 14 15 16 17 18 19 20 21 22 23 24 25 26 27 28 29 30 31
000
FTUS43 KGRB 171700
TAFGRB
TAF
KGRB 171734Z 1718/1818 29012G18KT P6SM -SN BKN060 BKN110
     FM171900 30008KT 5SM -SN SCT035 BKN050
     FM172200 31007KT P6SM -SN BKN035
     FM180600 34006KT P6SM SCT035=

USA.gov is the U.S. government's official web portal to all federal, state and local government web resources and services.